Location: Marcé
(47.5801°N, 0.3280°W)
Time: 20:27:28
(UTC+01:00)

Vanguard 3 - Pass Details

Date: 09 December 2021
Orbit: 508 x 3260 km, 33.3° (Epoch: 17 January)

Event Time Altitude Azimuth Distance (km) Brightness Sun altitude
Rises 10:07:20 0° 276° (W) 7,034 11.5 10.3°
Reaches altitude 10° 10:15:09 10° 259° (W) 5,621 11.2 11.1°
Maximum altitude 10:23:01 16° 230° (SW) 4,573 11.1 11.8°
Drops below altitude 10° 10:29:28 10° 199° (SSW) 4,415 11.5 12.5°
Sets 10:34:21 0° 178° (S) 4,868 12.2 12.9°
